This demonstration page uses our WeatherBlox Daily Observations layout. Learn more.

Left ArrowRight Arrow

39.92423, -83.80882

Hourly Observations for August 7, 2020

Temp ( °F °C ) Dew Point ( °F °C ) Humidity (%) Winds ( mph kmh ) Pressure ( in mb ) Visibility ( mi km ) Precip ( " mm )
12:56 am 00:56 Clear 62 16.7 60 15.6 93 93 NE 7 11 30.10 1019 10 16 N/A
1:56 am 01:56 Mostly Clear 59 15 59 15 100 100 N N/A 30.10 1019 10 16 N/A
2:56 am 02:56 Mostly Cloudy 59 15 59 15 100 100 NNE 3 6 30.11 1020 10 16 N/A
3:56 am 03:56 Mostly Cloudy 60 15.6 60 15.6 100 100 N 3 6 30.11 1020 10 16 N/A
4:56 am 04:56 Cloudy 60 15.6 60 15.6 100 100 N 5 7 30.11 1020 10 16 N/A
5:56 am 05:56 Cloudy 60 15.6 60 15.6 100 100 N 3 6 30.11 1020 10 16 N/A
6:56 am 06:56 Mostly Cloudy 59 15 59 15 100 100 NNW 3 6 30.13 1020 10 16 N/A
7:56 am 07:56 Sunny 61 16.1 60 15.6 97 97 N 6 9 30.14 1021 10 16 N/A
8:56 am 08:56 Sunny 66 18.9 61 16.1 84 84 N 7 11 30.15 1021 10 16 0.44 11.18
9:29 am 09:29 Hazy 70 21 61 16 73 73 NNE 9 15 30.14 1021 1 1 0.38 9.65
9:34 am 09:34 Mostly Sunny 70 21 61 16 73 73 undefined N/A N/A N/A 0.38 9.65
9:56 am 09:56 undefined N/A N/A N/A undefined N/A N/A N/A 0.60 15.24
10:56 am 10:56 undefined 74 23.3 62 16.7 67 67 NE 13 20 30.16 1021 10 16 0.56 14.22
11:56 am 11:56 undefined 76 24.4 61 16.1 60 60 undefined N/A N/A N/A 1.47 37.34
12:56 pm 12:56 Mostly Cloudy 77 25 61 16.1 58 58 ENE 7 11 30.16 1021 10 16 N/A
1:56 pm 13:56 Mostly Cloudy 75 23.9 58 14.4 55 55 ENE 5 7 30.16 1021 10 16 N/A
2:56 pm 14:56 Mostly Cloudy 78 25.6 61 16.1 56 56 NNW 7 11 30.15 1021 10 16 N/A
3:56 pm 15:56 Partly Cloudy 79 26.1 60 15.6 52 52 NW 5 7 30.14 1021 10 16 0.01 0.25
4:56 pm 16:56 Mostly Sunny 77 25 58 14.4 52 52 N N/A 30.14 1021 10 16 N/A
5:56 pm 17:56 Cloudy 79 26.1 61 16.1 54 54 WNW 6 9 30.13 1020 10 16 0.02 0.51
6:56 pm 18:56 Cloudy 78 25.6 61 16.1 56 56 NW 9 15 30.12 1020 10 16 N/A
7:56 pm 19:56 Cloudy 77 25 62 16.7 60 60 NW 6 9 30.13 1020 10 16 N/A
8:56 pm 20:56 Mostly Cloudy 71 21.7 62 16.7 73 73 NNW 6 9 30.14 1021 10 16 N/A
9:56 pm 21:56 Clear 67 19.4 62 16.7 84 84 N N/A 30.14 1021 10 16 0.73 18.54
10:56 pm 22:56 Clear 65 18.3 62 16.7 90 90 N N/A 30.16 1022 10 16 0.75 19.05
11:56 pm 23:56 Clear 63 17.2 62 16.7 97 97 NNE 5 7 30.16 1022 10 16 1.24 31.50

Powered by AerisWeather